Regional Weather Roundup
Issued by NWS

Home | Current Version | Previous Version | Graphics & Text | Print | Product List | Glossary On
Versions: 1 2 3 4 5 6 7 8 9 10 11 12 13 14 15 16 17 18 19 20 21 22 23 24 25 26 27 28 29 30 31 32 33 34 35 36 37 38 39 40 41 42 43 44 45 46 47 48 49 50
000
ASUS43 KMKX 250221
RWRWI

WISCONSIN REGIONAL WEATHER ROUNDUP
NATIONAL WEATHER SERVICE MILWAUKEE/SULLIVAN WI
900 PM CDT TUE MAY 24 2016

NOTE: "FAIR" INDICATES FEW OR NO CLOUDS BELOW 12,000 FEET WITH NO
SIGNIFICANT WEATHER AND/OR OBSTRUCTIONS TO VISIBILITY.

WIZ001-002-006>008-014>016-023>028-250300-
NORTHWEST WISCONSIN

CITY           SKY/WX    TMP DP  RH WIND       PRES   REMARKS
SUPERIOR ARPT  FOG       48  48 100 NE8       29.98R VSB 1/4
ASHLAND        FOG       53  53 100 NE5       29.98R VSB 1/2
HAYWARD        PTCLDY    67  57  70 NE3       29.94R
SIREN          CLEAR     65  61  84 CALM      29.92R
CUMBERLAND     PTCLDY    68  55  64 CALM      29.93R
RICE LAKE      PTCLDY    71  56  58 CALM      29.94R
CHETEK         PTCLDY    67  59  75 CALM      29.93R
LADYSMITH      CLEAR     66  58  75 CALM      29.95R
EAU CLAIRE     CLEAR     66  55  67 CALM      29.91R
MENOMONIE      PTCLDY    68  52  56 S5        29.92R
NEW RICHMOND   PTCLDY    72  58  61 E3        29.91S
OSCEOLA        PTCLDY    71  59  66 CALM      29.93S
$$

WIZ003>005-009-010-017-018-250300-
NORTH CENTRAL WISCONSIN

CITY           SKY/WX    TMP DP  RH WIND       PRES   REMARKS
MANITOWISH WTR NOT AVBL
ARBOR VITAE    CLEAR     63  60  88 CALM      29.96R
WOODRUFF       CLEAR     63  60  88 CALM      29.96R
RHINELANDER    CLOUDY    67  58  72 CALM      29.97R
EAGLE RIVER      N/A     64  57  80 CALM      29.96R
LAND O LAKES   CLEAR     60  58  92 CALM      29.97R
PHILLIPS       CLEAR     65  59  81 N3        29.94R
TOMAHAWK       MOCLDY    67  55  66 CALM      29.96R
MEDFORD        CLEAR     65  61  86 CALM      29.95R
MERRILL        CLEAR     64  59  82 CALM      29.95R
$$

WIZ029-030-035-036-043>047-250300-
CENTRAL WISCONSIN

CITY           SKY/WX    TMP DP  RH WIND       PRES   REMARKS
WAUSAU         CLEAR     71  58  63 CALM      29.92R
MOSINEE        CLEAR     66  57  72 CALM      29.95R
MARSHFIELD     CLEAR     72  56  57 SW3       29.93R
STEVENS POINT  CLEAR     67  55  66 CALM      29.95R
WAUPACA        CLEAR     72  57  58 CALM      29.93R
WAUTOMA        CLEAR     69  57  65 CALM      29.94R
WISC RAPIDS    CLEAR     70  57  63 CALM      29.95R
CAMP DOUGLAS   CLEAR     62  62 100 CALM      29.93R
$$

WIZ011>013-019>022-031-037>040-048>050-250300-
NORTHEAST WISCONSIN

CITY           SKY/WX    TMP DP  RH WIND       PRES   REMARKS
ANTIGO         CLEAR     65  57  75 CALM      29.95R
SHAWANO        CLEAR     71  57  62 CALM      29.93R
OCONTO         PTCLDY    62  62  98 CALM      29.92R
STURGEON BAY   NOT AVBL
GREEN BAY      CLEAR     73  58  59 CALM      29.92R
MANITOWOC      PTCLDY    61  55  81 E6        29.94R
APPLETON       PTCLDY    72  52  49 W6        29.92R
CLINTONVILLE   CLEAR     70  52  52 CALM      29.93R
OSHKOSH        CLEAR     74  58  57 CALM      29.93R
$$

WIZ032>034-041-042-053>061-250300-
SOUTHWEST WISCONSIN

CITY           SKY/WX    TMP DP  RH WIND       PRES   REMARKS
LA CROSSE      CLEAR     74  59  59 E3        29.91R
SPARTA         CLEAR     67  60  78 CALM      29.94R
VIROQUA        CLEAR     74  55  50 SE3       29.95R
BOSCOBEL       CLEAR     72  62  71 CALM      29.92R
PRAIRIE DU CHI CLEAR     73  61  66 CALM      29.91R
PLATTEVILLE    PTCLDY    76  61  58 N3        29.93S
$$

WIZ056-057-062-063-064-067-068-250300-
SOUTH CENTRAL WISCONSIN

CITY           SKY/WX    TMP DP  RH WIND       PRES   REMARKS
REEDSBURG      CLEAR     69  59  69 CALM      29.93S
BARABOO/DELLS  CLEAR     69  57  67 CALM      29.94S
LONE ROCK      CLEAR     69  60  73 CALM      29.93S
MINERAL POINT  CLOUDY    77  54  44 CALM      29.94S
MADISON        MOCLDY    71  61  70 N3        29.92F
MIDDLETON      MOCLDY    74  59  59 N5        29.94S
WATERTOWN      PTCLDY    71  62  72 CALM      29.93S
MONROE         PTCLDY    73  59  60 N3        29.93S
JANESVILLE     PTCLDY    73  64  73 NE9       29.93R
$$

WIZ051-052-058>065-066-070>072-250300-
SOUTHEAST WISCONSIN

CITY           SKY/WX    TMP DP  RH WIND       PRES   REMARKS
MILWAUKEE      CLOUDY    68  61  78 CALM      29.95R
WAUKESHA       PTCLDY    66  63  88 CALM      29.95F
MILWAUKEE/TIMM LGT RAIN  68  61  77 CALM      29.95F
RACINE         MOCLDY    67  52  58 NE3       29.96R
BURLINGTON     MOCLDY    69  56  63 CALM      29.94S
KENOSHA        MOCLDY    71  56  58 VRB3      29.94R
FOND DU LAC    CLEAR     69  63  81 SW3       29.94R
SHEBOYGAN      PTCLDY    64  56  75 S7        29.94R
WEST BEND      MOCLDY    70  59  68 S3        29.95R
JUNEAU         CLOUDY    74  59  58 CALM      29.95S
$$

LSZ147-162-250300-
LAKE SUPERIOR

STATION/POSITION TIME  TEMP    WIND        PRES    WAVE
                       AIR SEA DIR/SP/G            HT/PER
                 (UTC) (F)     (DEG/KT/KT) (MB)    (FT/S)
W MID LAKE BUOY  0150   42 38   60/ 16/ 17 1015.7R   1/ 4
DEVILS ISLAND    0200   47     110/ 16/ 19 1015.9R
SAXON HARBOR     0100   48      10/  2/  3 1014.6
$$

LMZ867-665-643>646-250300-
LAKE MICHIGAN

STATION/POSITION TIME  TEMP    WIND        PRES    WAVE
                       AIR SEA DIR/SP/G            HT/PER
                 (UTC) (F)     (DEG/KT/KT) (MB)    (FT/S)
CHAMBERS ISLAND  0100   62     110/  2/  6 1012.9S
N MID LAKE BUOY  0150   47 44  160/  6/  6 1013.9R   2/ 5
NORTHPORT PIER   0100   57     150/  5/  6 1012.9F
SISTER BAY       0149   59        CALM       N/A
ALGOMA LAKESHORE 0147          210/  9/  9   N/A
KEWAUNEE LAKESHO 0100                      1012.1R
SHEBOYGAN LAKESH 0200   63     200/  7/  7 1014.1R
PORT WASHINGTON  0120   60     170/  4/ 11 1014.6R
S MID LAKE BUOY  0150   56 49  130/ 10/ 10 1013.6R   0
KENOSHA   LAKESH 0200   62     130/  4/  6 1013.9R
$$

TC  - TEMPERATURE IN CELSIUS
VSB - VISIBILITY IN STATUTE MILES
WCI - WIND CHILL INDEX
HX  - HEAT INDEX





USA.gov is the U.S. government's official web portal to all federal, state and local government web resources and services.